| time (UTC) | temp F | wind direction | speed MPH | gust MPH | rain 1hr in | rain 24hr in | rain mn in | humidity % | barometer mb |
| 20260510010536 | 67 | 0.0 | 0.0 | 0.00 | 0.00 | 0.00 | 56 | 1011.8 | |
| 20260510005533 | 68 | 0.0 | 0.0 | 0.00 | 0.00 | 0.00 | 56 | 1011.9 | |
| 20260510004529 | 68 | 0.0 | 0.0 | 0.00 | 0.00 | 0.00 | 56 | 1011.6 | |
| 20260510003526 | 68 | 0.0 | 0.0 | 0.00 | 0.00 | 0.00 | 55 | 1011.4 | |
| 20260510002522 | 69 | 0.0 | 0.0 | 0.00 | 0.00 | 0.00 | 55 | 1011.2 | |
| 20260510001519 | 69 | 0.0 | 0.0 | 0.00 | 0.00 | 0.00 | 55 | 1011.3 | |
| 20260510000535 | 69 | 0.0 | 0.0 | 0.00 | 0.00 | 0.00 | 55 | 1011.1 | |
| 20260509235613 | 69 | 0.0 | 0.0 | 0.00 | 0.00 | 0.00 | 55 | 1011.2 | |
| 20260509234609 | 70 | 0.0 | 0.0 | 0.00 | 0.00 | 0.00 | 53 | 1011.2 | |
| 20260509233606 | 70 | 0.0 | 0.0 | 0.00 | 0.00 | 0.00 | 52 | 1011.1 | |
| 20260509232602 | 71 | 0.0 | 0.0 | 0.00 | 0.00 | 0.00 | 51 | 1010.8 | |
| 20260509231559 | 71 | 0.0 | 0.0 | 0.00 | 0.00 | 0.00 | 50 | 1010.7 | |
| 20260509230555 | 71 | 0.0 | 0.0 | 0.00 | 0.00 | 0.00 | 48 | 1010.7 | |
| 20260509225552 | 71 | 0.0 | 0.0 | 0.00 | 0.00 | 0.00 | 48 | 1010.5 | |
| 20260509224629 | 72 | 0.0 | 0.0 | 0.00 | 0.00 | 0.00 | 48 | 1010.4 | |
| 20260509223545 | 72 | 270 | 0.0 | 3.0 | 0.00 | 0.00 | 0.00 | 47 | 1010.3 |
| 20260509222542 | 73 | 270 | 0.0 | 2.0 | 0.00 | 0.00 | 0.00 | 46 | 1010.3 |
| 20260509221538 | 73 | 270 | 0.0 | 1.0 | 0.00 | 0.00 | 0.00 | 46 | 1010.5 |
| 20260509220535 | 73 | 0.0 | 1.0 | 0.00 | 0.00 | 0.00 | 45 | 1010.3 | |
| 20260509215531 | 73 | 270 | 1.0 | 3.0 | 0.00 | 0.00 | 0.00 | 46 | 1010.3 |
| 20260509214528 | 73 | 270 | 1.0 | 2.0 | 0.00 | 0.00 | 0.00 | 45 | 1010.2 |
| 20260509213525 | 73 | 270 | 1.0 | 3.0 | 0.00 | 0.00 | 0.00 | 46 | 1010.2 |
| 20260509212541 | 74 | 270 | 1.0 | 3.0 | 0.00 | 0.00 | 0.00 | 45 | 1010.1 |
| 20260509211517 | 74 | 270 | 1.0 | 3.0 | 0.00 | 0.00 | 0.00 | 45 | 1010.1 |
| 20260509210614 | 74 | 195 | 0.0 | 1.0 | 0.00 | 0.00 | 0.00 | 45 | 1010.1 |
| 20260509205631 | 72 | 218 | 1.0 | 2.0 | 0.00 | 0.00 | 0.00 | 47 | 1009.9 |
| 20260509204627 | 72 | 180 | 0.0 | 1.0 | 0.00 | 0.00 | 0.00 | 46 | 1010.0 |
| 20260509203604 | 72 | 270 | 0.0 | 1.0 | 0.00 | 0.00 | 0.00 | 46 | 1010.1 |
| 20260509202601 | 73 | 270 | 1.0 | 3.0 | 0.00 | 0.00 | 0.00 | 45 | 1010.1 |
| 20260509201557 | 75 | 236 | 1.0 | 3.0 | 0.00 | 0.00 | 0.00 | 44 | 1010.2 |
| 20260509200634 | 74 | 0.0 | 1.0 | 0.00 | 0.00 | 0.00 | 46 | 1010.2 | |
| 20260509195550 | 73 | 249 | 2.0 | 3.0 | 0.00 | 0.00 | 0.00 | 45 | 1010.2 |
| 20260509194607 | 74 | 217 | 0.0 | 2.0 | 0.00 | 0.00 | 0.00 | 45 | 1010.4 |
| 20260509193544 | 74 | 270 | 0.0 | 3.0 | 0.00 | 0.00 | 0.00 | 46 | 1010.5 |
| 20260509192601 | 73 | 225 | 1.0 | 2.0 | 0.00 | 0.00 | 0.00 | 46 | 1010.9 |
| 20260509191537 | 72 | 255 | 1.0 | 3.0 | 0.00 | 0.00 | 0.00 | 46 | 1010.8 |
| 20260509190553 | 73 | 243 | 1.0 | 2.0 | 0.00 | 0.00 | 0.00 | 45 | 1010.7 |
| 20260509185550 | 73 | 270 | 1.0 | 3.0 | 0.00 | 0.00 | 0.00 | 45 | 1010.7 |
| 20260509184527 | 73 | 225 | 1.0 | 2.0 | 0.00 | 0.00 | 0.00 | 45 | 1010.6 |
| 20260509183523 | 72 | 215 | 1.0 | 2.0 | 0.00 | 0.00 | 0.00 | 46 | 1010.7 |
| 20260509182540 | 71 | 225 | 1.0 | 2.0 | 0.00 | 0.00 | 0.00 | 47 | 1011.0 |
| 20260509181516 | 72 | 270 | 1.0 | 3.0 | 0.00 | 0.00 | 0.00 | 45 | 1011.1 |
| 20260509180613 | 71 | 180 | 1.0 | 2.0 | 0.00 | 0.00 | 0.00 | 46 | 1011.3 |
| 20260509175610 | 70 | 0.0 | 0.0 | 0.00 | 0.00 | 0.00 | 46 | 1011.5 | |
| 20260509174606 | 70 | 270 | 1.0 | 2.0 | 0.00 | 0.00 | 0.00 | 47 | 1011.6 |
| 20260509173603 | 71 | 270 | 1.0 | 2.0 | 0.00 | 0.00 | 0.00 | 45 | 1011.7 |
| 20260509172600 | 70 | 270 | 1.0 | 2.0 | 0.00 | 0.00 | 0.00 | 48 | 1011.6 |
| 20260509171557 | 70 | 263 | 1.0 | 3.0 | 0.00 | 0.00 | 0.00 | 46 | 1011.7 |
| 20260509170553 | 70 | 270 | 2.0 | 3.0 | 0.00 | 0.00 | 0.00 | 47 | 1011.8 |
| 20260509165549 | 69 | 270 | 1.0 | 2.0 | 0.00 | 0.00 | 0.00 | 48 | 1012.0 |
| 20260509164546 | 71 | 270 | 2.0 | 3.0 | 0.00 | 0.00 | 0.00 | 45 | 1012.2 |
| 20260509163543 | 73 | 270 | 1.0 | 3.0 | 0.00 | 0.00 | 0.00 | 43 | 1012.5 |
| 20260509162559 | 73 | 270 | 2.0 | 3.0 | 0.00 | 0.00 | 0.00 | 42 | 1012.4 |
| 20260509161536 | 73 | 270 | 1.0 | 3.0 | 0.00 | 0.00 | 0.00 | 44 | 1012.5 |
| 20260509160532 | 72 | 270 | 1.0 | 1.0 | 0.00 | 0.00 | 0.00 | 46 | 1012.7 |
| 20260509155549 | 71 | 270 | 1.0 | 2.0 | 0.00 | 0.00 | 0.00 | 47 | 1012.7 |
| 20260509154526 | 69 | 225 | 0.0 | 1.0 | 0.00 | 0.00 | 0.00 | 49 | 1012.7 |
| 20260509153602 | 67 | 270 | 0.0 | 2.0 | 0.00 | 0.00 | 0.00 | 53 | 1012.8 |
| 20260509152519 | 67 | 270 | 0.0 | 1.0 | 0.00 | 0.00 | 0.00 | 53 | 1012.6 |
| 20260509151515 | 66 | 0.0 | 0.0 | 0.00 | 0.00 | 0.00 | 53 | 1012.8 | |
| 20260509150612 | 66 | 270 | 0.0 | 1.0 | 0.00 | 0.00 | 0.00 | 55 | 1012.8 |
| 20260509145609 | 65 | 0.0 | 0.0 | 0.00 | 0.00 | 0.00 | 56 | 1012.9 | |
| 20260509144605 | 64 | 270 | 0.0 | 1.0 | 0.00 | 0.00 | 0.00 | 56 | 1013.0 |
| 20260509143602 | 63 | 180 | 0.0 | 3.0 | 0.00 | 0.00 | 0.00 | 57 | 1013.0 |
| 20260509142558 | 63 | 180 | 0.0 | 2.0 | 0.00 | 0.00 | 0.00 | 58 | 1012.8 |
| 20260509141614 | 62 | 0.0 | 0.0 | 0.00 | 0.00 | 0.00 | 59 | 1013.0 | |
| 20260509140551 | 61 | 0.0 | 1.0 | 0.00 | 0.00 | 0.00 | 59 | 1013.0 | |
| 20260509135547 | 60 | 270 | 0.0 | 1.0 | 0.00 | 0.00 | 0.00 | 60 | 1013.0 |
| 20260509134544 | 59 | 270 | 0.0 | 3.0 | 0.00 | 0.00 | 0.00 | 60 | 1013.1 |
| 20260509133541 | 58 | 0.0 | 0.0 | 0.00 | 0.00 | 0.00 | 61 | 1013.3 | |
| 20260509132538 | 57 | 270 | 0.0 | 2.0 | 0.00 | 0.00 | 0.00 | 62 | 1013.6 |
| 20260509131534 | 56 | 0.0 | 0.0 | 0.00 | 0.00 | 0.00 | 62 | 1014.0 | |
| 20260509130530 | 55 | 0.0 | 0.0 | 0.00 | 0.00 | 0.00 | 65 | 1014.1 | |
| 20260509125527 | 54 | 0.0 | 0.0 | 0.00 | 0.00 | 0.00 | 67 | 1014.1 | |
| 20260509124524 | 52 | 0.0 | 0.0 | 0.00 | 0.00 | 0.00 | 68 | 1014.2 | |
| 20260509123520 | 52 | 0.0 | 0.0 | 0.00 | 0.00 | 0.00 | 71 | 1014.4 | |
| 20260509122517 | 49 | 0.0 | 0.0 | 0.00 | 0.00 | 0.00 | 69 | 1014.3 | |
| 20260509121614 | 49 | 0.0 | 0.0 | 0.00 | 0.00 | 0.00 | 70 | 1014.0 | |
| 20260509120611 | 48 | 0.0 | 0.0 | 0.00 | 0.00 | 0.00 | 70 | 1013.6 | |
| 20260509115628 | 48 | 0.0 | 0.0 | 0.00 | 0.00 | 0.00 | 71 | 1013.8 | |
| 20260509114604 | 48 | 0.0 | 0.0 | 0.00 | 0.00 | 0.00 | 70 | 1013.8 | |
| 20260509113601 | 47 | 0.0 | 0.0 | 0.00 | 0.00 | 0.00 | 70 | 1013.5 | |
| 20260509112557 | 47 | 0.0 | 0.0 | 0.00 | 0.00 | 0.00 | 70 | 1013.5 | |
| 20260509111553 | 47 | 0.0 | 0.0 | 0.00 | 0.00 | 0.00 | 70 | 1013.5 | |
| 20260509110630 | 47 | 0.0 | 0.0 | 0.00 | 0.00 | 0.00 | 70 | 1013.4 | |
| 20260509105546 | 46 | 0.0 | 0.0 | 0.00 | 0.00 | 0.00 | 70 | 1013.6 | |
| 20260509104543 | 47 | 0.0 | 0.0 | 0.00 | 0.00 | 0.00 | 70 | 1013.3 | |
| 20260509103539 | 47 | 0.0 | 0.0 | 0.00 | 0.00 | 0.00 | 70 | 1013.1 | |
| 20260509102536 | 47 | 0.0 | 0.0 | 0.00 | 0.00 | 0.00 | 70 | 1012.8 | |
| 20260509101532 | 47 | 0.0 | 0.0 | 0.00 | 0.00 | 0.00 | 70 | 1012.9 | |
| 20260509100549 | 47 | 0.0 | 0.0 | 0.00 | 0.00 | 0.00 | 70 | 1012.6 | |
| 20260509095526 | 46 | 0.0 | 0.0 | 0.00 | 0.00 | 0.00 | 70 | 1012.7 | |
| 20260509094542 | 46 | 0.0 | 0.0 | 0.00 | 0.00 | 0.00 | 69 | 1012.8 | |
| 20260509093539 | 47 | 0.0 | 0.0 | 0.00 | 0.00 | 0.00 | 68 | 1012.9 | |
| 20260509092515 | 47 | 0.0 | 0.0 | 0.00 | 0.00 | 0.00 | 69 | 1012.8 | |
| 20260509091632 | 47 | 0.0 | 0.0 | 0.00 | 0.00 | 0.00 | 68 | 1012.8 | |
| 20260509090609 | 47 | 0.0 | 0.0 | 0.00 | 0.00 | 0.00 | 68 | 1012.8 | |
| 20260509085625 | 48 | 0.0 | 0.0 | 0.00 | 0.00 | 0.00 | 68 | 1012.9 | |
| 20260509084601 | 48 | 0.0 | 0.0 | 0.00 | 0.00 | 0.00 | 68 | 1013.1 | |
| 20260509083558 | 48 | 0.0 | 0.0 | 0.00 | 0.00 | 0.00 | 68 | 1013.3 | |
| 20260509082555 | 48 | 0.0 | 0.0 | 0.00 | 0.00 | 0.00 | 68 | 1013.4 | |
| 20260509081551 | 48 | 0.0 | 0.0 | 0.00 | 0.00 | 0.00 | 68 | 1013.4 | |
| 20260509080608 | 48 | 0.0 | 0.0 | 0.00 | 0.00 | 0.00 | 68 | 1013.5 | |
| 20260509075545 | 48 | 0.0 | 0.0 | 0.00 | 0.00 | 0.00 | 68 | 1013.6 | |
| 20260509074541 | 48 | 0.0 | 0.0 | 0.00 | 0.00 | 0.00 | 66 | 1013.4 | |
| 20260509073618 | 50 | 0.0 | 0.0 | 0.00 | 0.00 | 0.00 | 67 | 1013.3 | |
| 20260509072534 | 50 | 0.0 | 0.0 | 0.00 | 0.00 | 0.00 | 67 | 1013.3 | |
| 20260509071531 | 50 | 0.0 | 0.0 | 0.00 | 0.00 | 0.00 | 67 | 1013.5 | |
| 20260509070527 | 50 | 0.0 | 0.0 | 0.00 | 0.00 | 0.00 | 67 | 1013.7 | |
| 20260509065524 | 50 | 0.0 | 0.0 | 0.00 | 0.00 | 0.00 | 66 | 1013.8 | |
| 20260509064521 | 50 | 0.0 | 0.0 | 0.00 | 0.00 | 0.00 | 67 | 1013.8 | |
| 20260509063517 | 50 | 0.0 | 0.0 | 0.00 | 0.00 | 0.00 | 67 | 1013.8 | |
| 20260509062614 | 51 | 0.0 | 0.0 | 0.00 | 0.00 | 0.00 | 66 | 1014.1 | |
| 20260509061611 | 51 | 0.0 | 0.0 | 0.00 | 0.00 | 0.00 | 66 | 1014.1 | |
| 20260509060607 | 51 | 0.0 | 0.0 | 0.00 | 0.00 | 0.00 | 66 | 1014.4 | |
| 20260509055604 | 51 | 0.0 | 0.0 | 0.00 | 0.00 | 0.00 | 66 | 1014.4 | |
| 20260509054600 | 51 | 0.0 | 0.0 | 0.00 | 0.00 | 0.00 | 66 | 1014.4 | |
| 20260509053557 | 51 | 0.0 | 0.0 | 0.00 | 0.00 | 0.00 | 65 | 1014.5 | |
| 20260509052614 | 52 | 0.0 | 0.0 | 0.00 | 0.00 | 0.00 | 65 | 1014.8 | |
| 20260509051551 | 52 | 0.0 | 0.0 | 0.00 | 0.00 | 0.00 | 65 | 1014.8 | |
| 20260509050547 | 52 | 0.0 | 0.0 | 0.00 | 0.00 | 0.00 | 63 | 1014.9 | |
| 20260509045543 | 52 | 0.0 | 0.0 | 0.00 | 0.00 | 0.00 | 63 | 1015.0 | |
| 20260509044539 | 52 | 0.0 | 0.0 | 0.00 | 0.00 | 0.00 | 62 | 1015.0 | |
| 20260509043536 | 53 | 0.0 | 0.0 | 0.00 | 0.00 | 0.00 | 62 | 1015.0 | |
| 20260509042533 | 53 | 0.0 | 0.0 | 0.00 | 0.00 | 0.00 | 61 | 1015.0 | |
| 20260509041559 | 53 | 0.0 | 0.0 | 0.00 | 0.00 | 0.00 | 60 | 1015.1 | |
| 20260509040555 | 53 | 0.0 | 0.0 | 0.00 | 0.00 | 0.00 | 60 | 1015.1 | |
| 20260509035551 | 53 | 0.0 | 0.0 | 0.00 | 0.00 | 0.00 | 60 | 1015.0 | |
| 20260509034609 | 53 | 0.0 | 0.0 | 0.00 | 0.00 | 0.00 | 59 | 1015.0 | |
| 20260509033545 | 53 | 0.0 | 0.0 | 0.00 | 0.00 | 0.00 | 59 | 1015.1 | |
| 20260509032542 | 53 | 0.0 | 0.0 | 0.00 | 0.00 | 0.00 | 60 | 1015.0 | |
| 20260509031538 | 54 | 0.0 | 0.0 | 0.00 | 0.00 | 0.00 | 58 | 1015.0 | |
| 20260509030534 | 54 | 0.0 | 0.0 | 0.00 | 0.00 | 0.00 | 57 | 1015.2 | |
| 20260509025531 | 55 | 0.0 | 0.0 | 0.00 | 0.00 | 0.00 | 55 | 1015.1 | |
| 20260509024527 | 55 | 0.0 | 0.0 | 0.00 | 0.00 | 0.00 | 55 | 1015.2 | |
| 20260509023604 | 55 | 0.0 | 0.0 | 0.00 | 0.00 | 0.00 | 55 | 1015.3 | |
| 20260509022521 | 55 | 0.0 | 0.0 | 0.00 | 0.00 | 0.00 | 53 | 1015.2 | |
| 20260509021517 | 55 | 0.0 | 0.0 | 0.00 | 0.00 | 0.00 | 53 | 1015.3 | |
| 20260509020614 | 56 | 0.0 | 0.0 | 0.00 | 0.00 | 0.00 | 51 | 1015.2 | |
| 20260509015611 | 56 | 0.0 | 0.0 | 0.00 | 0.00 | 0.00 | 47 | 1015.3 | |
| 20260509014627 | 56 | 0.0 | 0.0 | 0.00 | 0.00 | 0.00 | 46 | 1015.3 | |
| 20260509013604 | 57 | 0.0 | 0.0 | 0.00 | 0.00 | 0.00 | 47 | 1015.2 | |
| 20260509012600 | 57 | 0.0 | 0.0 | 0.00 | 0.00 | 0.00 | 46 | 1015.1 | |
| 20260509011558 | 58 | 0.0 | 0.0 | 0.00 | 0.00 | 0.00 | 45 | 1015.0 |